Weather in Balakhninskiy

Russia / Irkutsk Oblast     58°00′37″N   114°16′35″E
temp.,
°C
wind,
m/s
gust,
m/s
humid.,
%
clouds,
%
prec.,
mm/h
press.,
hPa
HPBL,
m
8 may, sat
sat823:00−1nnw2293100 0.1 101614
02:00−2nnw119572 0.1 101716
05:00−2n129694 0.0 101636
08:00+2n2377100 0.0 1015450
11:00+5ne2465100 0.1 10141257
14:00+5ne4562100 0.4 10131248
17:00+5ne3564100 0.2 10121168
20:00+1nne228776 0.2 101322
9 may, sun
sun923:00−1ne2290100 0.0 101329
02:00−2ne2193100 0.0 101321
05:00−2ne119264 0.0 101332
08:00+3ene127326 0.0 1012550
11:00+6e235896 0.1 10111467
14:00+7ene335577 0.1 10111371
17:00+7ene345327 0.0 10101357
20:00+2ne33815 0.0 101238
10 may, mon
mon1023:00−1nne33885 0.0 101340
02:00−2ne229214 0.0 101429
05:00−1ne2290100 0.0 101438
08:00+4ene236733 0.0 1013641
11:00+7e335358 0.0 10121485
14:00+9ene334795 0.1 10111823
17:00+9ne445322 0.1 10121344
20:00+4ne337413 0.3 101345
11 may, tue
tue1123:00+2nne338424 0.0 101444
02:000nne22885 0.0 101427
05:000nne228910 0.0 101427
08:00+6ne126917 0.0 1013697
11:00+7ne2357100 0.4 10121269
14:00+9ne2352100 1.3 10101445
17:00+8ene3456100 0.9 10101248
20:00+5nnw1275100 1.3 1012288
12 may, wed
wed1223:00+3nw1287100 0.1 1012132
02:00+2wnw1199100 0.4 1011233
05:00+1wsw12100100 5.3 101184
08:00+1wsw22100100 9.9 1012113
11:00+1wsw2394100 1.4 1012411
14:00+3w2384100 2.3 1011689
17:00+3wnw2373100 0.7 1011796
20:00+1nw1196100 1.1 101243